When you browse on this site, cookies collect data to enhance your experience and personalize the content and advertising you see.
Visit our Privacy Policy to learn more. By continuing to use the site, you agree to this use of cookies and data.
  • In United Kingdom
  • List of Countries
  • For 7 days
  • Water Temperature
  • Satellite Maps
  • Weather Map
  • Weather Widgets
  • user-avatar
    Login

    Hourly Weather Ordino

    Today, 19 December, Wednesday

    Time Temperature Precipitation Wind Pressure Humidity
    00:00 +2°C° 0 mm 1 mps 633 mmHg 63%
    01:00 +2°C° 0 mm 1 mps 632 mmHg 66%
    02:00 +1°C° 0 mm 1 mps 632 mmHg 69%
    03:00 +1°C° 0 mm 1 mps 632 mmHg 72%
    04:00 +1°C° 0 mm 1 mps 632 mmHg 74%
    05:00 0°C° 0 mm 1 mps 631 mmHg 77%
    06:00 0°C° 0 mm 1 mps 631 mmHg 80%
    07:00 +1°C° 0 mm 1 mps 632 mmHg 78%
    08:00 +2°C° 0 mm 1 mps 632 mmHg 76%
    09:00 +3°C° 0 mm 1 mps 632 mmHg 74%
    10:00 +3°C° 0.1 mm 2 mps 633 mmHg 68%
    11:00 +3°C° 0.1 mm 2 mps 633 mmHg 63%
    12:00 +4°C° 0.1 mm 2 mps 634 mmHg 58%
    13:00 +4°C° 0.2 mm 2 mps 633 mmHg 61%
    14:00 +4°C° 0.2 mm 2 mps 633 mmHg 65%
    15:00 +3°C° 0.2 mm 2 mps 633 mmHg 69%
    16:00 +2°C° 0 mm 2 mps 633 mmHg 74%
    17:00 -1°C° 0 mm 2 mps 633 mmHg 79%
    18:00 -2°C° 0 mm 2 mps 633 mmHg 84%
    19:00 -2°C° 0 mm 2 mps 633 mmHg 83%
    20:00 -3°C° 0 mm 2 mps 633 mmHg 82%
    21:00 -3°C° 0 mm 2 mps 633 mmHg 81%
    22:00 -1°C° 0 mm 1 mps 634 mmHg 78%
    23:00 -2°C° 0 mm 1 mps 634 mmHg 76%

    Tomorrow, 20 December, Thursday

    Time Temperature Precipitation Wind Pressure Humidity
    00:00 -2°C° 0 mm 1 mps 634 mmHg 74%
    01:00 -2°C° 0 mm 1 mps 634 mmHg 73%
    02:00 -1°C° 0 mm 1 mps 634 mmHg 73%
    03:00 -1°C° 0 mm 1 mps 634 mmHg 72%
    04:00 -1°C° 0 mm 1 mps 634 mmHg 73%
    05:00 -1°C° 0 mm 1 mps 634 mmHg 74%
    06:00 -1°C° 0 mm 1 mps 635 mmHg 74%
    07:00 -1°C° 0 mm 1 mps 635 mmHg 73%
    08:00 0°C° 0 mm 1 mps 636 mmHg 72%
    09:00 +1°C° 0 mm 1 mps 636 mmHg 70%
    10:00 +2°C° 0 mm 1 mps 637 mmHg 65%
    11:00 +4°C° 0 mm 1 mps 637 mmHg 59%
    12:00 +5°C° 0 mm 1 mps 638 mmHg 54%
    13:00 +5°C° 0 mm 1 mps 638 mmHg 57%
    14:00 +5°C° 0 mm 1 mps 637 mmHg 60%
    15:00 +4°C° 0 mm 1 mps 637 mmHg 62%
    16:00 +3°C° 0 mm 1 mps 637 mmHg 68%
    17:00 +1°C° 0 mm 1 mps 637 mmHg 74%
    18:00 0°C° 0 mm 1 mps 637 mmHg 79%
    19:00 0°C° 0 mm 1 mps 637 mmHg 77%
    20:00 -1°C° 0 mm 1 mps 637 mmHg 75%
    21:00 -1°C° 0 mm 1 mps 637 mmHg 73%
    22:00 -1°C° 0 mm 1 mps 637 mmHg 72%
    23:00 -1°C° 0 mm 1 mps 637 mmHg 71%

    Day after tomorrow, 21 December, Friday

    Time Temperature Precipitation Wind Pressure Humidity
    00:00 0°C° 0 mm 1 mps 637 mmHg 69%
    01:00 0°C° 0 mm 1 mps 637 mmHg 69%
    02:00 0°C° 0 mm 1 mps 637 mmHg 70%
    03:00 0°C° 0 mm 1 mps 637 mmHg 70%
    04:00 0°C° 0 mm 1 mps 637 mmHg 70%
    05:00 0°C° 0 mm 1 mps 637 mmHg 70%
    06:00 0°C° 0 mm 1 mps 637 mmHg 69%
    07:00 +1°C° 0 mm 1 mps 637 mmHg 66%
    08:00 +3°C° 0 mm 1 mps 638 mmHg 63%
    09:00 +4°C° 0 mm 1 mps 639 mmHg 60%
    10:00 +6°C° 0 mm 1 mps 639 mmHg 57%
    11:00 +7°C° 0 mm 1 mps 640 mmHg 54%
    12:00 +9°C° 0 mm 1 mps 640 mmHg 51%
    13:00 +9°C° 0 mm 1 mps 640 mmHg 54%
    14:00 +8°C° 0 mm 1 mps 640 mmHg 57%
    15:00 +7°C° 0 mm 0 mps 639 mmHg 61%
    16:00 +6°C° 0 mm 1 mps 639 mmHg 64%
    17:00 +5°C° 0 mm 1 mps 639 mmHg 68%
    18:00 +4°C° 0 mm 1 mps 638 mmHg 71%
    19:00 +4°C° 0 mm 1 mps 639 mmHg 70%
    20:00 +4°C° 0 mm 1 mps 639 mmHg 68%
    21:00 +4°C° 0 mm 1 mps 639 mmHg 67%
    22:00 +4°C° 0 mm 1 mps 639 mmHg 66%
    23:00 +4°C° 0 mm 1 mps 639 mmHg 66%

    22 December, Saturday

    Time Temperature Precipitation Wind Pressure Humidity
    00:00 +4°C° 0 mm 1 mps 639 mmHg 65%
    01:00 +4°C° 0 mm 1 mps 639 mmHg 65%
    02:00 +4°C° 0 mm 1 mps 638 mmHg 66%
    03:00 +3°C° 0 mm 2 mps 638 mmHg 67%
    04:00 +3°C° 0 mm 2 mps 638 mmHg 69%
    05:00 +3°C° 0 mm 2 mps 639 mmHg 71%
    06:00 +3°C° 0 mm 2 mps 639 mmHg 73%
    07:00 +4°C° 0 mm 2 mps 639 mmHg 72%
    08:00 +5°C° 0 mm 1 mps 640 mmHg 72%
    09:00 +6°C° 0 mm 1 mps 640 mmHg 71%
    10:00 +8°C° 0 mm 1 mps 641 mmHg 67%
    11:00 +10°C° 0 mm 1 mps 641 mmHg 62%
    12:00 +11°C° 0 mm 1 mps 642 mmHg 58%
    13:00 +11°C° 0 mm 1 mps 641 mmHg 61%
    14:00 +10°C° 0 mm 1 mps 641 mmHg 64%
    15:00 +9°C° 0 mm 1 mps 640 mmHg 68%
    16:00 +8°C° 0 mm 1 mps 640 mmHg 72%
    17:00 +6°C° 0 mm 1 mps 640 mmHg 77%
    18:00 +5°C° 0 mm 1 mps 639 mmHg 81%
    19:00 +4°C° 0 mm 1 mps 639 mmHg 80%
    20:00 +4°C° 0 mm 1 mps 639 mmHg 78%
    21:00 +4°C° 0 mm 1 mps 639 mmHg 76%
    22:00 +4°C° 0 mm 1 mps 639 mmHg 74%
    23:00 +4°C° 0 mm 1 mps 639 mmHg 72%

    23 December, Sunday

    Time Temperature Precipitation Wind Pressure Humidity
    00:00 +4°C° 0 mm 1 mps 639 mmHg 70%
    01:00 +4°C° 0 mm 1 mps 639 mmHg 69%
    02:00 +4°C° 0 mm 1 mps 639 mmHg 68%
    03:00 +4°C° 0 mm 1 mps 639 mmHg 67%
    04:00 +4°C° 0 mm 1 mps 639 mmHg 68%
    05:00 +4°C° 0 mm 1 mps 639 mmHg 68%
    06:00 +4°C° 0 mm 1 mps 639 mmHg 69%
    07:00 +5°C° 0 mm 1 mps 639 mmHg 68%
    08:00 +5°C° 0 mm 1 mps 640 mmHg 66%
    09:00 +6°C° 0 mm 1 mps 641 mmHg 65%
    10:00 +8°C° 0 mm 1 mps 641 mmHg 61%
    11:00 +8°C° 0 mm 0 mps 641 mmHg 57%
    12:00 +10°C° 0 mm 0 mps 642 mmHg 54%
    13:00 +9°C° 0 mm 0 mps 641 mmHg 58%
    14:00 +10°C° 0 mm 1 mps 641 mmHg 62%
    15:00 +9°C° 0 mm 1 mps 640 mmHg 67%
    16:00 +8°C° 0 mm 1 mps 640 mmHg 72%
    17:00 +6°C° 0 mm 1 mps 640 mmHg 77%
    18:00 +5°C° 0 mm 1 mps 639 mmHg 82%
    19:00 +5°C° 0 mm 1 mps 640 mmHg 80%
    20:00 +5°C° 0 mm 1 mps 640 mmHg 79%
    21:00 +5°C° 0 mm 1 mps 640 mmHg 77%
    22:00 +5°C° 0 mm 1 mps 640 mmHg 76%
    23:00 +5°C° 0 mm 1 mps 640 mmHg 75%

    24 December, Monday

    Time Temperature Precipitation Wind Pressure Humidity
    00:00 +5°C° 0 mm 1 mps 640 mmHg 74%
    01:00 +4°C° 0 mm 1 mps 640 mmHg 73%
    02:00 +3°C° 0 mm 2 mps 639 mmHg 73%
    03:00 +3°C° 0 mm 2 mps 639 mmHg 72%
    04:00 +3°C° 0 mm 2 mps 639 mmHg 73%
    05:00 +3°C° 0 mm 2 mps 639 mmHg 73%
    06:00 +3°C° 0 mm 2 mps 639 mmHg 73%
    07:00 +4°C° 0 mm 2 mps 640 mmHg 71%
    08:00 +5°C° 0 mm 2 mps 640 mmHg 69%
    09:00 +6°C° 0 mm 2 mps 641 mmHg 68%
    10:00 +8°C° 0 mm 1 mps 641 mmHg 64%
    11:00 +10°C° 0 mm 1 mps 641 mmHg 60%
    12:00 +11°C° 0 mm 1 mps 642 mmHg 56%
    13:00 +11°C° 0 mm 1 mps 641 mmHg 60%
    14:00 +10°C° 0 mm 1 mps 641 mmHg 63%
    15:00 +10°C° 0 mm 1 mps 640 mmHg 67%
    16:00 +8°C° 0 mm 1 mps 640 mmHg 71%
    17:00 +7°C° 0 mm 1 mps 639 mmHg 76%
    18:00 +5°C° 0 mm 1 mps 639 mmHg 80%
    19:00 +5°C° 0 mm 1 mps 639 mmHg 78%
    20:00 +5°C° 0 mm 1 mps 639 mmHg 76%
    21:00 +5°C° 0 mm 1 mps 639 mmHg 75%
    22:00 +5°C° 0 mm 1 mps 639 mmHg 73%
    23:00 +5°C° 0 mm 1 mps 638 mmHg 72%
    Show more